Weather History for Greenwood, MS

Change the Weather History Date:

Wednesday, November 21, 2012

  Actual Average Record
Temperature  
Mean Temperature 54 °F 52 °F  
Max Temperature 71 °F 64 °F 81 °F (2011)
Min Temperature 37 °F 41 °F 23 °F (1981)
Degree Days  
Heating Degree Days 11 13  
Month to date heating degree days 264 208  
Since 1 July heating degree days 434 339  
Cooling Degree Days 0 0  
Month to date cooling degree days 7 14  
Year to date cooling degree days 2241 2156  
Growing Degree Days 4 (Base 50)    
Moisture  
Dew Point 44 °F    
Average Humidity 74    
Maximum Humidity 100    
Minimum Humidity 47    
Precipitation  
Precipitation 0.00 in 0.16 in 2.54 in (1977)
Month to date precipitation 0.99 2.93  
Year to date precipitation 36.37 44.53  
Sea Level Pressure  
Sea Level Pressure 30.20 in    
Wind  
Wind Speed 2 mph (North)    
Max Wind Speed 8 mph    
Max Gust Speed 12 mph    
Visibility 5 miles    
Events Fog    
T = Trace of Precipitation, MM = Missing Value Source: NWS Daily Summary

Daily Weather History Graph

Daily Weather History Graph

Search for Another Location

Airport:

Trip Planner

Search our weather history database for the weather conditions in past years. The results will help you decide how hot, cold, wet, or windy it might be!

Date:

Astronomy

Nov. 21, 2012 Rise Set
Actual Time 6:37 AM CST 4:54 PM CST
Civil Twilight 6:11 AM CST 5:21 PM CST
Nautical Twilight 5:40 AM CST 5:51 PM CST
Astronomical Twilight 5:11 AM CST 6:21 PM CST
Moon 12:54 PM CST (11/21) 12:15 AM CST (11/21)
Length of Visible Light 11h 10m
Length of Day
10h 16m
First Quarter, 62% of the Moon is Illuminated
Nov 21
First Quarter
Nov 28
Full
Dec 6
Last Quarter
Dec 13
New
Dec 19
First Quarter

Hourly Weather History & Observations

Time (CST) Temp. Windchill Dew Point Humidity Pressure Visibility Wind Dir Wind Speed Gust Speed Precip Events Conditions
12:53 AM 46.0 °F - 44.1 °F 93% 30.15 in 8.0 mi Calm Calm - N/A   Partly Cloudy
1:53 AM 44.1 °F - 43.0 °F 96% 30.15 in 7.0 mi Calm Calm - N/A   Clear
2:53 AM 43.0 °F - 42.1 °F 97% 30.16 in 7.0 mi Calm Calm - N/A   Clear
3:53 AM 43.0 °F - 42.1 °F 97% 30.16 in 8.0 mi Calm Calm - N/A   Clear
4:53 AM 39.9 °F - 39.9 °F 100% 30.18 in 5.0 mi Calm Calm - N/A   Clear
5:17 AM 39.2 °F - 37.4 °F 93% 30.18 in 1.8 mi Calm Calm - N/A   Clear
5:27 AM 37.4 °F - 37.4 °F 100% 30.18 in 0.5 mi Calm Calm - N/A Fog Fog
5:45 AM 39.2 °F - 39.2 °F 100% 30.19 in 0.2 mi Calm Calm - N/A Fog Fog
5:53 AM 39.0 °F - 39.0 °F 100% 30.19 in 0.2 mi Calm Calm - N/A Fog Fog
5:59 AM 39.2 °F - 39.2 °F 100% 30.20 in 1.0 mi Calm Calm - N/A   Mist
6:01 AM 39.2 °F - 39.2 °F 100% 30.20 in 2.0 mi Calm Calm - N/A   Partly Cloudy
6:10 AM 37.4 °F - 37.4 °F 100% 30.20 in 1.0 mi Calm Calm - N/A   Mist
6:13 AM 39.2 °F - 39.2 °F 100% 30.20 in 0.5 mi Calm Calm - N/A Fog Fog
6:22 AM 37.4 °F - 37.4 °F 100% 30.20 in 3.0 mi Calm Calm - N/A   Clear
6:40 AM 39.2 °F - 37.4 °F 93% 30.21 in 1.8 mi Calm Calm - N/A   Clear
6:53 AM 39.0 °F - 39.0 °F 100% 30.21 in 1.8 mi Calm Calm - N/A   Clear
7:06 AM 37.4 °F - 37.4 °F 100% 30.22 in 0.5 mi Calm Calm - N/A Fog Fog
7:11 AM 37.4 °F - 37.4 °F 100% 30.22 in 0.2 mi Calm Calm - N/A Fog Fog
7:40 AM 44.6 °F - 44.6 °F 100% 30.22 in 1.2 mi Calm Calm - N/A   Scattered Clouds
7:44 AM 46.4 °F - 44.6 °F 93% 30.22 in 3.0 mi Calm Calm - N/A   Scattered Clouds
7:53 AM 48.0 °F - 46.0 °F 93% 30.22 in 5.0 mi North 3.5 mph - N/A   Partly Cloudy
8:53 AM 53.1 °F - 48.0 °F 83% 30.24 in 7.0 mi NNW 4.6 mph - N/A   Clear
9:53 AM 57.9 °F - 48.9 °F 72% 30.25 in 9.0 mi Calm Calm - N/A   Clear
10:53 AM 64.0 °F - 51.1 °F 63% 30.24 in 10.0 mi NNW 3.5 mph - N/A   Clear
11:53 AM 68.0 °F - 51.1 °F 55% 30.22 in 10.0 mi Variable 3.5 mph - N/A   Clear
12:53 PM 69.1 °F - 50.0 °F 51% 30.20 in 10.0 mi Variable 6.9 mph - N/A   Clear
1:53 PM 71.1 °F - 50.0 °F 47% 30.19 in 10.0 mi North 5.8 mph - N/A   Clear
2:53 PM 71.1 °F - 50.0 °F 47% 30.17 in 10.0 mi NNE 4.6 mph - N/A   Clear
3:53 PM 69.1 °F - 48.9 °F 49% 30.17 in 10.0 mi Variable 3.5 mph - N/A   Clear
4:53 PM 64.9 °F - 50.0 °F 58% 30.18 in 10.0 mi NNW 4.6 mph - N/A   Clear
5:53 PM 55.9 °F - 48.9 °F 77% 30.19 in 10.0 mi Calm Calm - N/A   Clear
6:53 PM 50.0 °F - 48.0 °F 93% 30.20 in 7.0 mi Calm Calm - N/A   Clear
7:53 PM 48.0 °F - 46.9 °F 96% 30.21 in 5.0 mi Calm Calm - N/A   Clear
8:53 PM 48.9 °F - 46.9 °F 93% 30.22 in 6.0 mi Calm Calm - N/A   Clear
9:53 PM 45.0 °F 43.5 °F 44.1 °F 97% 30.22 in 6.0 mi East 3.5 mph - N/A   Clear
10:07 PM 42.8 °F - 42.8 °F 100% 30.21 in 2.0 mi Calm Calm - N/A   Clear
10:24 PM 44.6 °F - 44.6 °F 100% 30.21 in 4.0 mi Calm Calm - N/A   Clear
10:53 PM 44.1 °F - 43.0 °F 96% 30.21 in 5.0 mi Calm Calm - N/A   Clear
11:53 PM 41.0 °F 39.0 °F 41.0 °F 100% 30.20 in 5.0 mi NE 3.5 mph - N/A   Clear